Theta_e
301 301 301 302 304 307 305 304 305 307 309 315 318 318 316 315 325 329 330 326 328 325 325 328 331 331 331 314 316 319 325 328 329 325 326 324 326 329 328 330 330 330 330 331 330
302 301 301 301 307 311 303 305 306 307 308 310 315 317 317 316 323 327 328 328 327 326 323 327 329 331 331 316 316 319 326 328 328 326 322 324 327 326 328 330 330 330 332 332 327
304 302 301 301 302 308 309 303 305 307 308 309 313 316 319 317 320 323 326 328 324 326 323 326 328 327 325 322 317 320 321 329 329 327 321 324 325 326 327 328 330 331 333 332 328
304 303 301 301 301 301 303 305 304 307 309 311 314 316 319 318 321 321 321 326 327 323 322 326 326 327 322 320 322 319 321 325 328 322 319 323 325 326 327 329 329 329 328 329 328
306 305 303 301 301 301 303 309 309 309 309 310 313 315 318 319 319 323 323 325 327 321 321 324 325 321 322 319 320 320 319 322 324 319 318 322 325 325 326 326 328 328 329 327 324
306 305 303 302 301 302 304 306 309 310 309 311 313 315 318 319 318 319 323 324 322 322 321 322 324 325 321 323 321 320 320 318 320 317 317 318 321 324 325 326 325 328 329 327 323
306 304 305 302 301 302 304 306 308 310 310 311 314 314 317 318 318 317 319 323 323 322 324 323 325 325 322 323 322 322 323 320 317 317 317 317 318 319 324 326 326 328 329 328 324
306 305 305 302 303 302 305 308 309 310 309 311 314 314 315 318 317 319 321 320 321 325 326 326 325 325 324 323 322 324 322 324 318 317 317 317 317 317 320 324 325 328 330 331 330
307 306 305 303 303 304 305 309 309 309 308 310 312 314 314 314 316 318 319 320 320 323 325 326 327 325 324 326 326 325 329 326 323 317 316 315 318 318 319 323 324 327 328 330 331
308 307 305 304 301 305 305 307 307 307 308 310 311 313 313 314 316 317 319 319 320 321 322 324 319 323 325 327 330 329 329 327 327 317 316 315 316 320 319 320 322 324 326 329 329
308 307 306 305 302 305 305 305 305 308 310 310 311 311 313 314 315 318 318 320 318 317 318 316 321 325 327 326 327 327 327 329 327 324 318 318 317 319 318 319 320 322 324 326 329
308 307 306 305 304 305 305 306 305 309 309 305 308 312 311 313 315 313 318 318 316 319 314 316 322 321 324 324 324 327 331 328 325 319 319 320 320 320 320 316 319 321 322 325 326
308 307 306 305 304 306 302 305 307 307 307 307 310 309 312 312 314 314 317 319 317 315 317 321 319 319 321 324 327 327 329 332 331 317 315 315 319 322 323 322 318 320 321 323 325
308 307 306 305 305 304 304 303 307 305 307 305 307 309 310 312 312 313 317 318 313 317 317 318 314 318 320 320 325 329 326 329 327 322 328 317 333 328 324 323 315 317 320 321 323
308 307 306 304 304 305 305 305 305 302 305 305 310 312 311 312 313 316 315 316 311 310 312 314 313 314 318 320 321 327 317 322 325 327 326 324 319 324 325 324 322 317 317 318 321
308 307 306 305 304 303 306 305 304 308 303 311 313 313 313 313 313 314 315 312 310 310 308 309 307 311 314 315 316 316 317 322 319 324 327 326 322 323 325 325 324 321 317 317 318
308 306 304 304 305 305 306 304 305 305 307 308 312 312 314 315 315 314 309 308 312 313 314 308 308 308 309 313 310 314 317 320 323 323 327 324 319 322 321 320 321 320 318 318 316
307 305 304 304 305 305 305 305 303 301 308 309 311 311 315 315 315 313 311 311 314 315 314 316 314 309 310 314 315 311 315 323 328 325 319 309 321 320 318 318 317 316 316 316 317
306 306 305 304 305 304 305 304 301 305 302 310 309 310 312 315 311 310 312 313 314 314 318 317 315 309 310 310 313 313 315 316 317 308 315 313 313 314 312 311 311 312 313 314 315
306 305 304 305 305 305 304 303 304 306 305 305 307 310 312 312 313 310 313 316 316 314 314 315 313 311 308 309 309 311 313 317 316 315 317 315 316 316 314 312 310 310 312 313 313
305 305 305 304 304 304 304 303 304 307 306 307 307 308 312 313 313 313 314 316 316 315 315 314 312 309 309 311 313 313 313 313 316 315 320 313 312 312 313 311 309 308 311 311 311
302 303 304 304 304 303 304 304 303 303 303 306 307 307 307 307 310 312 316 317 316 315 317 316 311 311 312 309 310 311 313 314 317 315 309 313 314 309 308 307 308 309 309 309 309
302 304 304 304 305 304 304 303 303 304 304 306 304 306 306 308 310 311 314 315 315 315 317 315 315 313 313 312 308 311 311 312 313 311 310 314 315 308 306 307 309 310 309 309 309
302 304 304 303 303 303 303 303 303 303 305 305 305 307 307 307 307 310 309 314 315 315 315 313 314 316 317 315 311 313 312 312 313 313 314 313 312 308 308 307 307 308 308 309 310
302 302 302 303 303 303 303 304 303 303 303 305 305 306 307 307 308 308 311 312 315 314 311 313 314 313 308 313 314 313 314 314 314 313 314 314 313 309 307 307 308 309 309 309 310
300 301 301 302 303 304 304 303 303 303 304 305 306 306 306 307 307 310 306 313 315 311 313 314 313 309 309 310 314 314 315 315 313 314 315 314 313 312 309 310 309 310 309 310 310
300 301 302 302 302 303 303 303 303 303 303 303 304 304 306 307 306 306 306 305 306 313 312 314 311 313 314 312 314 316 314 314 314 312 313 314 313 309 309 308 309 311 311 311 311
Wind_Speed
27 27 26 26 25 23 21 21 22 21 18 20 19 16 13 15 15 22 29 17 26 13 17 22 18 18 16 7 8 4 4 10 12 8 9 7 7 5 4 13 8 6 3 4 23
26 27 26 26 26 23 24 23 21 21 20 18 18 17 12 13 18 26 28 22 20 23 19 25 27 15 9 4 6 7 5 10 14 7 8 12 13 11 5 14 7 9 8 14 24
27 26 27 27 28 26 24 25 23 20 19 17 18 16 12 12 15 32 27 24 20 22 20 25 22 21 5 8 9 3 10 10 22 5 1 10 14 17 8 7 15 20 22 22 23
30 27 26 27 27 26 25 23 22 21 18 15 16 14 13 11 9 10 25 29 29 22 22 23 20 20 8 4 17 11 15 24 22 8 3 6 11 12 19 8 20 20 21 24 24
30 29 28 27 27 25 24 22 22 20 18 15 14 16 15 18 20 4 10 26 31 27 26 25 25 13 9 11 7 13 19 18 22 7 10 9 12 10 20 10 12 21 21 23 23
34 31 29 28 26 24 23 23 23 20 16 14 15 19 20 21 16 20 15 18 29 31 23 26 18 20 12 7 7 6 18 20 16 11 9 6 9 18 16 18 13 17 23 22 23
38 35 31 29 26 24 21 20 19 19 16 13 15 22 27 21 9 17 24 21 22 29 28 26 19 18 15 7 14 6 8 16 14 16 6 12 6 6 18 22 20 21 21 21 23
39 37 32 29 25 23 20 18 17 15 13 13 14 20 19 17 27 15 23 25 21 25 25 28 25 16 8 14 8 8 3 6 7 14 8 13 8 16 23 25 24 24 22 22 23
42 40 36 31 26 22 21 17 14 15 10 11 12 12 8 24 24 29 21 25 30 30 24 18 30 10 12 8 4 5 6 13 8 20 5 9 6 12 28 26 24 26 26 27 26
45 42 39 34 28 24 21 18 14 11 10 9 12 6 15 17 17 28 27 23 31 28 18 14 3 6 6 10 16 9 13 7 14 9 9 8 12 5 25 29 26 29 29 30 30
47 43 40 35 32 28 24 18 7 6 16 12 10 16 4 18 9 22 34 28 24 20 10 9 6 12 21 22 13 9 14 20 14 13 12 16 13 15 15 18 20 23 29 31 32
49 44 40 35 31 29 26 17 15 5 7 27 26 13 19 10 7 23 35 25 13 13 8 5 17 7 9 18 22 22 13 19 4 3 6 8 17 15 14 16 29 27 28 33 31
51 46 40 36 32 29 29 28 9 11 3 8 22 26 17 21 13 22 35 27 8 12 18 12 1 10 5 7 19 22 22 18 11 4 3 7 11 14 16 23 28 31 29 29 34
52 47 41 39 32 31 27 24 14 9 2 6 10 12 24 15 9 24 42 19 4 8 16 4 2 10 11 7 13 19 16 18 16 10 5 11 7 17 17 15 14 26 31 30 29
55 49 45 45 25 34 28 25 19 12 2 6 10 7 19 26 12 18 42 14 13 11 6 5 11 12 9 12 10 13 6 11 12 11 4 4 4 6 10 21 22 21 33 36 35
57 52 49 43 28 33 33 27 22 4 9 5 7 9 12 19 17 17 19 9 10 8 5 4 3 3 5 4 4 3 3 5 2 2 4 13 13 6 11 14 19 20 30 38 39
58 55 53 46 37 41 39 36 5 6 4 6 5 5 14 13 17 14 7 5 9 8 8 3 3 1 7 5 5 2 13 2 2 4 5 17 12 9 4 1 9 16 28 35 37
58 55 50 48 42 49 46 11 7 8 7 3 4 5 9 10 9 17 16 10 14 7 6 10 5 11 11 7 8 8 9 4 5 4 3 2 10 5 11 10 9 9 10 15 37
58 56 52 45 51 50 38 11 9 5 17 11 7 3 6 7 4 5 17 17 11 11 11 10 4 7 16 7 9 6 9 3 4 3 4 5 5 7 5 7 5 8 10 12 10
60 53 51 47 53 50 14 12 5 4 4 6 7 8 7 7 7 9 17 20 15 17 9 6 8 5 3 7 2 3 2 3 4 4 5 4 3 4 9 9 8 7 14 15 15
49 25 48 50 54 34 12 7 8 14 10 5 8 5 2 3 13 7 12 12 18 19 5 6 4 5 7 7 12 5 4 6 5 4 4 4 6 6 8 9 11 8 13 15 15
26 5 58 58 13 10 12 10 13 14 11 5 2 4 4 2 1 5 12 13 34 22 13 7 6 5 3 7 5 5 8 9 3 4 2 2 3 2 8 8 13 13 13 12 13
19 19 54 54 9 14 8 12 12 10 10 8 9 8 8 4 2 5 13 27 39 21 17 10 4 7 6 4 4 6 8 9 11 7 5 4 4 0 5 6 10 14 15 14 11
17 9 20 29 9 16 12 18 13 11 8 7 4 3 4 6 7 6 9 7 32 26 25 15 3 8 12 6 12 12 14 17 14 4 2 5 2 5 4 7 9 15 14 12 5
10 6 11 14 10 17 17 14 18 9 11 10 7 10 8 6 4 7 13 16 20 29 6 5 4 3 4 8 9 17 19 21 19 17 7 5 7 8 10 9 15 18 13 4 3
9 12 9 13 20 13 21 15 19 18 12 9 11 14 14 13 14 7 2 10 14 9 7 2 6 4 2 1 11 16 22 21 22 26 22 12 11 5 12 17 14 15 12 8 5
15 25 18 18 17 10 18 18 15 13 16 15 17 11 15 20 14 15 13 20 26 22 20 17 10 12 7 5 7 4 24 29 28 30 30 23 21 6 3 8 17 13 9 7 6
Wind_Direction
228 229 227 226 228 236 240 238 243 254 252 244 251 254 251 240 238 235 232 216 229 213 209 215 229 240 244 292 260 283 258 237 241 205 238 143 187 203 97 129 128 160 86 174 186
230 226 227 224 224 232 234 240 243 245 253 251 248 253 245 240 241 245 234 224 230 222 207 204 209 234 243 286 256 212 232 241 249 207 212 186 187 169 157 145 143 145 123 167 177
234 230 226 226 226 227 233 235 238 249 250 254 245 250 246 237 251 249 234 223 217 221 227 218 203 204 223 224 276 237 240 248 262 267 333 176 199 176 187 187 185 178 174 180 179
235 233 229 228 227 228 233 237 235 240 250 253 242 242 238 223 226 242 233 220 227 214 216 209 188 152 148 205 232 275 264 250 263 226 204 225 206 187 199 182 211 197 201 189 186
233 234 229 228 228 226 227 229 238 238 248 253 245 231 221 220 228 77 221 204 215 204 205 200 181 152 158 156 269 285 272 262 265 218 212 234 203 199 209 215 183 182 196 201 197
233 234 230 227 227 224 225 226 236 236 247 251 235 223 224 236 242 233 237 215 207 199 198 204 203 182 138 127 152 291 320 292 247 223 210 208 229 197 221 205 159 178 196 204 202
234 230 229 227 224 222 222 224 232 231 238 239 230 221 229 234 253 225 234 233 224 205 203 209 216 177 157 130 198 283 323 316 226 224 213 209 222 216 211 199 173 189 198 205 203
231 227 224 223 221 219 216 220 223 224 231 224 227 229 241 240 233 216 220 223 211 214 214 200 205 172 167 125 98 220 187 258 248 208 225 178 228 223 219 189 182 187 192 199 201
228 225 220 221 217 214 209 210 211 218 216 215 222 223 243 248 236 223 220 210 196 210 216 190 183 168 144 146 127 198 204 218 284 194 167 187 234 232 203 191 191 194 197 197 202
224 225 220 216 215 210 206 206 213 221 213 219 228 216 244 225 228 224 209 206 194 200 207 191 166 164 153 165 219 207 211 219 208 205 199 200 254 279 197 187 197 200 200 198 202
220 222 218 216 212 206 200 184 172 213 204 198 198 218 57 213 212 220 218 190 184 182 190 166 202 210 199 194 218 205 206 218 214 215 201 219 228 243 181 194 210 211 202 205 208
217 215 215 211 209 203 197 184 194 175 202 230 231 231 232 224 221 223 207 179 166 189 133 146 221 176 177 217 216 236 253 216 190 270 247 232 239 236 218 203 207 213 212 204 208
213 209 211 209 205 203 204 196 200 213 271 232 223 229 217 220 224 229 191 183 174 162 173 201 120 217 132 242 207 216 230 224 208 148 326 329 269 242 233 219 208 213 220 214 205
209 206 205 201 199 198 190 184 198 169 262 237 200 228 208 216 252 238 209 186 137 185 164 198 133 192 188 220 219 211 216 236 179 154 201 179 272 221 221 223 198 201 213 223 210
205 202 199 198 184 180 172 174 161 142 245 198 170 186 189 181 147 208 219 212 159 151 163 140 164 165 154 210 210 225 63 285 191 179 142 184 266 238 229 218 214 202 204 213 216
199 196 193 190 181 179 164 165 146 141 231 185 132 188 174 197 185 152 191 202 152 121 62 83 67 258 112 92 245 18 25 2 207 148 214 192 183 220 220 202 210 211 205 211 213
192 191 189 180 173 163 163 152 129 209 165 182 174 191 203 193 190 164 153 185 157 130 161 114 109 125 99 103 22 92 119 165 149 239 235 179 202 216 189 213 178 201 206 216 219
188 185 183 178 167 167 163 158 195 190 199 103 128 183 217 196 191 180 163 195 218 179 141 168 189 178 156 186 163 180 180 191 172 203 162 346 222 239 226 247 237 227 167 201 221
181 177 172 172 171 167 158 183 199 183 189 153 121 137 210 217 128 165 189 180 196 172 157 169 138 166 167 136 152 165 221 164 356 230 92 205 259 316 224 230 190 187 194 207 185
168 164 169 171 169 161 166 193 195 127 94 205 164 168 190 200 184 188 197 193 182 198 191 164 118 156 88 92 326 191 359 188 212 231 236 228 261 229 191 193 190 192 199 204 221
160 159 172 171 166 166 191 193 167 132 124 141 201 161 186 212 203 209 204 180 188 183 124 139 112 145 163 175 170 161 203 205 252 242 199 145 246 211 189 164 160 169 176 174 195
149 134 167 166 159 186 198 179 198 216 182 89 127 148 184 156 159 246 215 214 199 184 166 204 119 134 117 75 179 184 184 198 241 258 289 255 256 4 103 113 127 151 173 176 189
124 123 164 164 165 177 151 191 214 188 201 150 203 210 161 174 247 238 227 219 193 190 172 184 131 115 120 103 85 196 198 211 248 291 217 156 248 329 84 111 135 150 166 168 179
131 139 153 176 172 159 160 189 192 200 186 140 188 141 150 197 181 278 297 259 192 189 194 154 153 188 194 180 134 186 197 208 217 231 216 230 120 230 181 138 130 141 145 152 162
135 124 157 171 202 167 180 171 190 185 198 149 202 214 195 228 219 240 276 260 188 187 150 123 140 122 6 136 153 177 185 200 219 238 249 207 250 209 199 183 173 166 166 187 272
119 150 161 157 157 171 177 192 190 199 167 194 214 194 212 228 211 192 326 231 194 156 134 189 175 127 70 335 164 178 178 194 214 227 235 249 229 246 199 177 178 189 203 235 223
128 148 133 155 163 175 197 193 193 188 219 214 205 224 221 226 245 253 230 247 276 188 177 180 159 171 183 147 100 197 196 197 207 212 213 214 217 166 173 184 201 225 249 229 246